Overview Statistics Trail Chart Weather Telemetry Raw packets
 

This is the latest recevied weather packets stored in our database for station/object DC1MPP-9. If no packets are shown the sender has not sent any weather packets the latest 10 day(s).

<< 76 77 78 79 80 81 82 >>
Time Temp. Humidity Pressure Rain* Wind** Luminosity Snow
1788018953 25.56° C 43% 959 hPa - - - -
1788018712 26.11° C 42% 959 hPa - - - -
1788018471 25.56° C 39% 959 hPa - - - -
1788017989 25.56° C 42% 959 hPa - - - -
1788017748 25.56° C 43% 959 hPa - - - -
1788017507 25.56° C 47% 959 hPa - - - -
1788017266 25.56° C 46% 959 hPa - - - -
1788017025 25.56° C 45% 959 hPa - - - -
1788016784 25.56° C 41% 959 hPa - - - -
1788016543 26.11° C 42% 959 hPa - - - -
1788016302 26.11° C 43% 959 hPa - - - -
1788015819 26.11° C 41% 959 hPa - - - -
1788015578 26.11° C 40% 959 hPa - - - -
1788015343 26.11° C 44% 959 hPa - - - -
1788015096 26.11° C 45% 959 hPa - - - -
1788014855 26.11° C 44% 959 hPa - - - -
1788014373 26.11° C 43% 959 hPa - - - -
1788014132 26.11° C 40% 959 hPa - - - -
1788013891 26.67° C 40% 959 hPa - - - -
1788013650 27.22° C 46% 959 hPa - - - -
1788013409 26.67° C 42% 959 hPa - - - -
1788013168 26.67° C 41% 959 hPa - - - -
1788012926 26.67° C 40% 959 hPa - - - -
1788012685 26.67° C 41% 959 hPa - - - -
1788012203 26.67° C 41% 959 hPa - - - -

* Rain since midnight (hover to see other rain measurements)
** Current wind speed in m/s (hover to see current wind gust speed)